Location: Unspecified
(33.6682°S, 0.0000°E)
Time: 12:13:39
(UTC+00:00)

Explorer 11/Cluster Stage 4 - All Passes

Search period start: 25 June 2019 00:00
Search period end: 05 July 2019 00:00
Orbit: 467 x 1260 km, 28.8° (Epoch: 24 June)

Date Brightness Start Highest point End Pass type
(mag) Time Alt. Az. Time Alt. Az. Time Alt. Az.
25 Jun - 01:29:07 10° WNW 01:37:13 57° N 01:44:55 10° E night (unlit)
25 Jun - 03:18:22 10° W 03:26:26 60° N 03:33:33 10° ENE visible
25 Jun - 05:08:13 10° W 05:15:14 38° NNW 05:21:09 10° NE visible
25 Jun - 07:00:03 10° WNW 07:03:09 14° NW 07:06:01 10° N daylight
25 Jun - 21:44:47 10° N 21:48:55 16° NNE 21:53:17 10° ENE night (unlit)
25 Jun - 23:30:09 10° NW 23:37:20 38° NNE 23:44:49 10° E night (unlit)
26 Jun - 01:18:18 10° WNW 01:26:23 59° N 01:34:14 10° E night (unlit)
26 Jun - 03:07:31 10° W 03:15:38 59° N 03:22:54 10° ENE visible
26 Jun - 04:57:25 10° W 05:04:25 35° NNW 05:10:27 10° NE visible
26 Jun - 06:49:56 10° WNW 06:52:21 12° NW 06:54:38 10° NNW daylight
26 Jun - 21:33:28 10° N 21:38:03 18° NNE 21:42:58 10° ENE night (unlit)
26 Jun - 23:19:17 10° NW 23:26:27 41° NNE 23:34:06 10° E night (unlit)
27 Jun - 01:07:30 10° WNW 01:15:33 61° N 01:23:32 10° E night (unlit)
27 Jun - 02:56:42 10° W 03:04:49 57° N 03:12:14 10° ENE visible
27 Jun - 04:46:40 10° W 04:53:36 33° NNW 04:59:41 10° NE visible
27 Jun - 06:40:23 10° NW 06:41:31 10° NW 06:42:38 10° NNW visible
27 Jun - 21:22:19 10° NNW 21:27:10 20° NNE 21:32:30 10° ENE night (unlit)
27 Jun - 23:08:29 10° NW 23:15:35 44° NNE 23:23:22 10° E night (unlit)
28 Jun - 00:56:45 10° WNW 01:04:43 62° N 01:12:48 10° E night (unlit)
28 Jun - 02:45:55 10° W 02:53:59 55° NNW 03:01:31 10° ENE visible
28 Jun - 04:35:56 10° W 04:42:45 30° NNW 04:48:51 10° NNE visible
28 Jun - 21:11:17 10° NNW 21:16:19 22° NNE 21:21:56 10° ENE night (unlit)
28 Jun - 22:57:44 10° NW 23:04:45 47° NNE 23:12:34 10° E night (unlit)
29 Jun - 00:46:01 10° WNW 00:53:53 63° N 01:02:03 10° E night (unlit)
29 Jun - 02:35:09 10° W 02:43:09 52° NNW 02:50:46 10° ENE visible
29 Jun - 04:25:15 10° W 04:31:53 28° NNW 04:37:57 10° NNE visible
29 Jun - 21:00:22 10° NNW 21:05:29 24° NNE 21:11:19 10° E night (unlit)
29 Jun - 22:47:01 10° WNW 22:53:55 50° NNE 23:01:46 10° E night (unlit)
30 Jun - 00:35:19 10° W 00:43:04 63° N 00:51:15 10° ENE night (unlit)
30 Jun - 02:24:25 10° W 02:32:17 49° NNW 02:39:57 10° ENE visible
30 Jun - 04:14:37 10° W 04:21:01 25° NNW 04:26:57 10° NNE visible
30 Jun - 20:49:31 10° NNW 20:54:39 26° NNE 21:00:37 10° E visible
30 Jun - 22:36:22 10° WNW 22:43:07 52° NNE 22:50:56 10° E night (unlit)
01 Jul - 00:24:39 10° W 00:32:14 62° N 00:40:26 10° ENE night (unlit)
01 Jul - 02:13:43 10° W 02:21:25 46° NNW 02:29:06 10° NE visible
01 Jul - 04:04:05 10° WNW 04:10:07 23° NNW 04:15:51 10° NNE visible
01 Jul - 20:38:45 10° NNW 20:43:52 28° NNE 20:49:53 10° E visible
01 Jul - 22:25:45 10° WNW 22:32:20 54° N 22:40:04 10° E night (unlit)
02 Jul - 00:14:01 10° W 00:21:25 61° N 00:29:35 10° ENE night (unlit)
02 Jul - 02:03:03 10° W 02:10:34 43° NNW 02:18:12 10° NE visible
02 Jul - 03:53:38 10° WNW 03:59:13 20° NNW 04:04:37 10° NNE visible
02 Jul - 20:28:03 10° NW 20:33:06 30° NNE 20:39:08 10° E visible
02 Jul - 22:15:10 10° WNW 22:21:34 56° N 22:29:12 10° E night (unlit)
03 Jul - 00:03:25 10° W 00:10:37 59° N 00:18:42 10° ENE night (unlit)
03 Jul - 01:52:26 10° W 01:59:42 39° NNW 02:07:14 10° NE night (unlit)
03 Jul - 03:43:18 10° WNW 03:48:19 17° NNW 03:53:15 10° N visible
03 Jul - 20:17:24 10° NW 20:22:21 33° NNE 20:28:22 10° E visible
03 Jul - 22:04:37 10° WNW 22:10:49 57° N 22:18:20 10° E night (unlit)
03 Jul - 23:52:51 10° W 23:59:50 56° N 00:07:48 10° ENE night (unlit)
04 Jul - 01:41:51 10° W 01:48:50 36° NNW 01:56:12 10° NE night (unlit)
04 Jul - 03:33:11 10° WNW 03:37:26 15° NNW 03:41:40 10° N visible
04 Jul - 18:22:49 10° NNE 18:24:01 11° NE 18:25:15 10° NE visible
04 Jul - 20:06:48 10° NW 20:11:39 35° NNE 20:17:34 10° E visible
04 Jul - 21:54:07 10° WNW 22:00:06 57° N 22:07:27 10° E night (unlit)
04 Jul - 23:42:19 10° W 23:49:03 53° N 23:56:52 10° ENE night (unlit)
